Location: Unspecified
(41.1637°N, 24.2901°E)
Time: 17:56:29
(UTC+02:00)

ISS - Pass Details

Date: 20 May 2024
Orbit: 410 x 414 km, 51.6° (Epoch: 18 May)

Event Time Altitude Azimuth Distance (km) Brightness Sun altitude
Rises 21:48:54 0° 310° (NW) 2,349 1.5 -19.4°
Reaches altitude 10° 21:51:25 10° 329° (NNW) 1,484 0.2 -19.7°
Maximum altitude 21:53:54 19° 17° (NNE) 1,049 -1.3 -20.0°
Enters shadow 21:55:34 14° 54° (NE) 1,260 -1.4 -20.1°
